User: anonymous   Login
Location: ??????
(56.0120°N, 39.1740°E)
Time: 15:01:34
(UTC+00:00)
Language:

Gbstr 26 Del rocket - Orbit

View from above orbital plane
View from above orbital plane
View from above satellite
View from above satellite

Ground track
Ground track

The orbit is defined by the following mean orbital elements,

1 25876U          26159.11557659 +.00000000 +00000-0 +17901-3 0 00004
2 25876  51.7662 300.0336 0500945 255.1992  99.2946 14.12000165    07
Epoch (UTC): 08 June 2026 02:46:25
Eccentricity: 0.0500945
inclination: 51.7662°
perigee height: 490 km
apogee height: 1215 km
right ascension of ascending node: 300.0336°
argument of perigee: 255.1992°
revolutions per day: 14.12000165
mean anomaly at epoch: 99.2946°

The dashed part of the orbit path shows where the satellite is in the earth's shadow,  

DLR